Погода в Асьюте

Египет     27°11′15″N   31°11′09″E
темп.,
°C
ветер,
м/с
пор.,
м/с
влажн.,
%
обл.,
%
осадки,
мм/ч
давл.,
гПа
погр.,
м
14 июня, пн
пн1423:00+30ссз1014275 0.0 1009629
02:00+26с915395 0.0 1010470
05:00+24с612441 0.0 1010367
08:00+29ссз710240 0.0 1011762
11:00+33ссз910190 0.0 10112044
14:00+35ссз9101516 0.0 10092427
17:00+34ссз910160 0.0 10092301
20:00+30с510210 0.0 1010267
15 июня, вт
вт1523:00+28с510260 0.0 1011225
02:00+26ссв611405 0.0 1011310
05:00+24с59440 0.0 1011218
08:00+28с68290 0.0 1012742
11:00+33ссз88190 0.0 10111942
14:00+35ссз88140 0.0 10092200
17:00+34ссз89140 0.0 10082232
20:00+30ссз510200 0.0 1010207
16 июня, ср
ср1623:00+28с49280 0.0 1010183
02:00+26с713330 0.0 1010408
05:00+23ссз611520 0.0 1012303
08:00+27с68320 0.0 1013733
11:00+34с89150 0.0 10121699
14:00+36с99120 0.0 10102271
17:00+35с1010160 0.0 10102303
20:00+31с59240 0.0 1012204
17 июня, чт
чт1723:00+29с1017310 0.0 1013533
02:00+26ссв714410 0.0 1012417
05:00+25с612440 0.0 1013335
08:00+29с710250 0.0 1014721
11:00+34ссз99160 0.0 10131606
14:00+36ссз91090 0.0 10121896
17:00+35ссз910110 0.0 10111860
20:00+31ссз612160 0.0 1012258
18 июня, пт
пт1823:00+28ссз611220 0.0 1012243
02:00+25с713420 0.0 1012390
05:00+23ссз612510 0.0 1012364
08:00+26ссз810390 0.0 1012732
11:00+33ссз99200 0.0 10111375
14:00+37ссз99130 0.0 10081948
17:00+36ссз1010140 0.0 10081999
20:00+32ссз713180 0.0 1009296